Regional Weather Roundup
Issued by NWS

Home | Current Version | Previous Version | Text Only | Print | Product List | Glossary On
Versions: 1 2 3 4 5 6 7 8 9 10 11 12 13 14 15 16 17 18 19 20 21 22 23 24 25 26 27 28
000
ASUS44 KJAN 190410
RWRMS

MISSISSIPPI HOURLY WEATHER ROUNDUP
NATIONAL WEATHER SERVICE JACKSON MS
1000 PM CST THU JAN 18 2018

NOTE: "FAIR: INDICATES FEW OR NO CLOUDS BELOW 12,000 FEET WITH NO
SIGNIFICANT WEATHER AND/OR OBSTRUCTIONS TO VISIBILITY.

MSZ001>002-007>008-010>013-018>021-025>028-034>036-190500-
NORTHWEST MISSISSIPPI

CITY           SKY/WX    TMP DP  RH WIND       PRES   REMARKS
BATESVILLE     FAIR      20  16  85 CALM      30.40F
CLARKSDALE     CLEAR     27  23  86 S6        30.40S WCI  20
CLEVELAND      FAIR      28  23  79 S6        30.41S WCI  22
GREENWOOD      FAIR      23  20  88 CALM      30.42S
GREENVILLE     FAIR      24  21  88 S8        30.41S WCI  15
OXFORD         FAIR      21  16  79 CALM      30.40F
TUNICA           N/A     23  19  86 S6        30.40S WCI  16
WINONA         FAIR      21  19  93 CALM      30.41S
$$

MSZ003>006-009-014>017-022>024-029>033-037>039-190500-
NORTHEAST MISSISSIPPI

CITY           SKY/WX    TMP DP  RH WIND       PRES   REMARKS
ABERDEEN         N/A     19  18  93 CALM      30.42S
COLUMBUS AFB   FAIR      20  17  87 CALM      30.40F
CORINTH        FAIR      23  18  80 CALM      30.38S
GOLDN TRIANGLE FAIR      25  16  68 CALM      30.41S
STARKVILLE     FAIR      23  19  86 CALM      30.41S
TUPELO         FAIR      24  17  74 CALM      30.41R
$$

MSZ040-058-190500-
CENTRAL MISSISSIPPI

CITY           SKY/WX    TMP DP  RH WIND       PRES   REMARKS
JACKSON INTL   FAIR      22  14  71 CALM      30.41R
JACKSON HAWKNS FAIR      26  17  68 CALM      30.42R
MADISON        FAIR      23  14  68 CALM      30.41S
MERIDIAN KEY   FAIR      23  17  78 S3        30.42R
MERIDIAN NAS   FAIR      24  15  68 CALM      30.42S
RAYMOND          N/A     21  19  93 CALM      30.42R
VICKSBURG VKS  CLEAR     23  19  86 CALM      30.43S
$$

MSZ059>079-190500-
SOUTH MISSISSIPPI

CITY           SKY/WX    TMP DP  RH WIND       PRES   REMARKS
COLUMBIA       FAIR      25  23  93 CALM      30.47R
HATTIESBURG    FAIR      26  22  84 CALM      30.44S
LAUREL         FAIR      25  22  89 CALM      30.43S
MCCOMB         FAIR      29  19  66 CALM      30.41R
NATCHEZ        FAIR      26  20  77 CALM      30.42S
PINE BELT      FAIR      24  20  84 CALM      30.43R
$$

MSZ080>082-190500-
COASTAL MISSISSIPPI

CITY           SKY/WX    TMP DP  RH WIND       PRES   REMARKS
BILOXI         FAIR      33  26  76 CALM      30.43S
PASCAGOULA       N/A     25  21  85 CALM      30.44S
GULFPORT       FAIR      29  25  85 CALM      30.43S
$$

LAZ007>009-015>016-023>026-190500-
NORTHEAST LOUISIANA

CITY           SKY/WX    TMP DP  RH WIND       PRES   REMARKS
BASTROP        FAIR      22  19  90 CALM      30.42S
TALLULAH/VBURG FAIR      21  20  96 E3        30.43S
VIDALIA          N/A     28  23  82 MISG      30.43R
$$




USA.gov is the U.S. government's official web portal to all federal, state and local government web resources and services.